Location: Invercargill
(46.4000°S, 168.3500°E)
Time: 19:35:40
(UTC+12:00)

Cosmos 1867 - Pass Details

Date: 14 May 2021
Orbit: 773 x 802 km, 65.0° (Epoch: 14 June)

Event Time Altitude Azimuth Distance (km) Brightness Sun altitude
Rises 19:49:50 0° 216° (SW) 3,289 7.2 -24.8°
Reaches altitude 10° 19:52:17 10° 212° (SSW) 2,355 6.4 -25.3°
Enters shadow 19:57:05 60° 165° (SSE) 897 3.7 -26.1°
